TITAN 3C TRANSTAGE DEB, 26525

Orbit data source: Space-Track

TITAN 3C TRANSTAGE DEB, 26525 is space debris in HEO originally from a launch on Tue, 21 Dec 1965 UTC launched from the Air Force Eastern Test Range (AFETR). Debris objects in space refer to the collection of defunct objects orbiting the Earth. Examples of debris include non-operational satellites, rocket bodies, and fragments generated from explosions, collisions, or faulty payload assembly.

Loading next visibility...
Identifier
26525, 1965-108AL
Orbit
HEO
Country
Flag of USUS
Related business
Manufacturer
Unknown
Mission
Spacecraft
Bus & Motor
Unknown
Mass
Unknown
Launch date (UTC)
1965-12-21 (61 years ago)
Launch vehicle
Unknown
Launch site
Air Force Eastern Test Range (AFETR)
Object type
Payload
Rocket body
Debris
Shape & HBR
Unknown shape, 0.3 m
Radar Cross Section
Medium (>0.1 m² and <1 m²)

Expand to show TLE details & history
Last TLE update: 1 day ago

TLE from 1 day ago
0 TITAN 3C TRANSTAGE DEB
1 26525U 65108AL  26254.92498073  .00000833  00000-0  59873-2 0  9999
2 26525  26.1557 121.8864 6716977  93.9295 348.3009  2.83390773273188
Epoch: 2026-09-11T22:11Z
TLE epoch observation values (Epoch: 2026-09-11T22:11:58.335Z)
Latitude
11.94495°
Longitude
-176.54737°
Altitude
2,697.871 km
Speed
8.303 km/s
True Right ascension
09h 49m 32s
True Declination
11° 53' 25"
Sunlit
Object was in daylight at epoch
Visualization orbit readout
Latitude
Unknown
Longitude
Unknown
Altitude
Unknown
Speed
Unknown
Apparent Right ascension
Unknown
Apparent Declination
Unknown
Sunlit
N/A
Visualization observer readout
Local Sidereal Time
16:04:41
Azimuth
Unknown
Elevation
Unknown
Doppler factor
Unknown
Orbital elements
Apogee altitude
28,889.603 km
Perigee altitude
548.044 km
Semi-major axis
21,096.96 km
Eccentricity
0.6717
Inclination
26.1557°
RAAN
121.8864°
Arg. of periapsis
93.9295°
True anomaly
293.81824°
Mean anomaly
348.3009°
Eccentric anomaly
327.7836°
Mean motion
0.70829 °/min
Orbital period
508.26 mins
BSTAR
0.0059873
Loading maneuver chart data...
Computing Atmospheric mass density...

Documentation

Showing up to 5 results
|